Location: Bottenau
(48.5138°N, 8.0462°E)
Time: 20:22:02
(UTC+00:00)

Cosmos 44 - Pass Details

Date: 18 April 2021
Orbit: 571 x 791 km, 65.1° (Epoch: 18 May)

Event Time Altitude Azimuth Distance (km) Brightness Sun altitude
Rises 19:09:21 0° 190° (S) 3,082 6.5 -7.8°
Reaches altitude 10° 19:11:46 10° 182° (S) 2,203 5.6 -8.2°
Maximum altitude 19:16:23 37° 116° (ESE) 1,160 4.0 -8.9°
Drops below altitude 10° 19:21:15 10° 51° (NE) 2,325 5.8 -9.6°
Sets 19:23:52 0° 43° (NE) 3,275 6.6 -9.9°
